Location: Waco, TX
(31.5480°N, 97.1670°W)
Time: 22:27:57
(UTC-05:00)

ISS - Pass Details

Date: 24 May 2017
Orbit: 401 x 408 km, 51.6° (Epoch: 24 June)

Event Time Altitude Azimuth Distance (km) Brightness Sun altitude
Rises 05:53:03 0° 313° (NW) 2,321 -0.2 -7.3°
Reaches altitude 10° 05:55:09 10° 311° (NW) 1,457 -1.2 -6.9°
Maximum altitude 05:58:24 72° 226° (SW) 426 -3.9 -6.3°
Drops below altitude 10° 06:01:37 10° 142° (SE) 1,445 -0.9 -5.7°
Sets 06:03:41 0° 140° (SE) 2,298 0.2 -5.3°
